User: anonymous   Login
Location: Unspecified
(0.0000°N, 0.0000°E)
Time: 19:48:14
(UTC+00:00)
Language:

Diademe D-1D - Orbit

View from above orbital plane
View from above orbital plane
View from above satellite
View from above satellite

Ground track
Ground track

The orbit data is extracted from the following two-line orbital elements,

1 02680U 67014A   17269.19632617  .00000048  00000-0  49194-4 0  9997
2 02680  39.4436 179.0422 0718525 302.7608  50.5841 13.37846448449329
Epoch (UTC): 26 September 2017 04:42:42
Eccentricity: 0.0718525
inclination: 39.4436°
perigee height: 579 km
apogee height: 1656 km
right ascension of ascending node: 179.0422°
argument of perigee: 302.7608°
revolutions per day: 13.37846448
mean anomaly at epoch: 50.5841°
orbit number at epoch: 44932

The dashed part of the orbit path shows where the satellite is in the earth's shadow,  

DLR